Regional Weather Roundup
Issued by NWS

Home | Current Version | Previous Version | Graphics & Text | Print | Product List | Glossary On
Versions: 1 2 3 4 5 6 7 8 9 10 11 12 13 14 15 16 17 18 19 20 21 22 23 24 25 26 27
000
ASUS45 KBOU 232007
RWRCO

WEATHER ROUNDUP FOR COLORADO
NATIONAL WEATHER SERVICE DENVER/BOULDER CO
100 PM MST THU FEB 23 2017

NOTE: "FAIR" INDICATES FEW OR NO CLOUDS BELOW 12000 FEET WITH NO
SIGNIFICANT WEATHER AND/OR OBSTRUCTIONS TO VISIBILITY.

COZ001>005-013-030-031-232100-
...NORTHWEST COLORADO...

CITY           SKY/WX    TMP DP  RH WIND       PRES   REMARKS
CRAIG          PTSUNNY   27  14  58 W15       29.62F WCI  15
HAYDEN         FAIR      25  12  58 NW13      29.61S WCI  13
MEEKER         LGT SNOW  27  15  61 W15       29.63S WCI  15
MOUNT WERNER   NOT AVBL
STEAMBOAT SPGS CLOUDY    23  18  83 SW8       29.61R VSB 3/4 WCI  14
WALDEN         NOT AVBL
$$

COZ006>008-011-232100-
...WEST CENTRAL VALLEYS...

CITY           SKY/WX    TMP DP  RH WIND       PRES   REMARKS
GRAND JUNCTION FAIR      40   7  25 SW20G30   29.68F
MONTROSE       CLOUDY    37  -1  20 SW20G26   29.68F
EAGLE          PTSUNNY   28  16  59 SW23G31   29.63S WCI  14
RIFLE          FAIR      35   8  32 W23G35    29.64S WCI  23
DELTA          FAIR      42  -2  15 W22G30    29.68S
NUCLA          CLOUDY    34   0  23 W17G23    29.73S WCI  23
$$

COZ017>023-064>068-232100-
...SOUTHWEST COLORADO...

CITY           SKY/WX    TMP DP  RH WIND       PRES   REMARKS
DURANGO        FAIR      32   6  33 W26G33    29.69S WCI  18
CORTEZ         CLOUDY    39   6  25 SW24G36   29.72F
PAGOSA SPRINGS CLOUDY    29   9  43 W23       29.66F WCI  15
TELLURIDE      LGT SNOW  20  11  69 NW6       29.65F WCI  12
WOLF CREEK PAS CLOUDY     7   5  92 S37G49    29.53F FOG     WCI -19
$$

COZ009-010-012-014-032>034-037-058>063-232100-
...CENTRAL COLORADO...

CITY           SKY/WX    TMP DP  RH WIND       PRES   REMARKS
ASPEN          CLOUDY    20  14  77 NW17G26   29.59R HAZE    WCI   5
BUENA VISTA    PTSUNNY   29   8  41 W17G25    29.53S WCI  17
COPPER MTN     SNOW      12   5  73 MISG      29.45S VSB 1/4
BERTHOUD PASS  SNOW       3  -6  66 MISG      29.40S VSB 1/2
COTTONWOOD PAS CLOUDY    23  -6  28 SW24G38   29.50S WCI   7
GUNNISON       FAIR      27   5  39 W17G23    29.61F WCI  14
KREMMLING      LGT SNOW  32  25  74 N13G18    29.55S VSB 1   WCI  22
LEADVILLE      CLOUDY    15   3  59 W10       29.48R WCI   2
MONARCH PASS   PTSUNNY    5   1  85 W44G60    29.56F FOG     WCI -23
SALIDA         FAIR      33   0  23 W31G43    29.62S WCI  19
SUNLIGHT       NOT AVBL
WILKERSON PASS PTSUNNY   23   5  46 SW17G29   29.46R WCI   9
$$

COZ069>075-232100-
...SAN LUIS VALLEY/SANGRE DE CRISTO MOUNTAINS...

CITY           SKY/WX    TMP DP  RH WIND       PRES   REMARKS
ALAMOSA        FAIR      34   8  33 W23G35    29.56F WCI  22
LA VETA PASS   PTSUNNY   27  10  50 S39G58    29.45F WCI   8
SAGUACHE       CLOUDY    30   9  40 N25G32    29.57R WCI  16
$$

COZ035-036-038>040-232100-
...NORTHERN COLORADO FRONT RANGE...

CITY           SKY/WX    TMP DP  RH WIND       PRES   REMARKS
DENVER INTL AP FLURRIES  30  26  85 NE14      29.54R WCI  19
DMNS CITY PARK   N/A     32  28  84 MISG      29.53F
AURORA         LGT SNOW  29  29  96 NE10      29.53S FOG     WCI  20
FRONT RANGE AP CLOUDY    32  30  93 NE12      29.54S WCI  23
ERIE MUNI ARPT CLOUDY    32  29  88 NE7       29.56S WCI  26
BOULDER MUN AP LGT RAIN  32  30  93 NE8       29.55S WCI  25
CENTENNIAL     LGT SNOW  30  26  85 N10       29.53R FOG     WCI  21
BROOMFIELD     LGT SNOW  32  28  86 NE10      29.54  WCI  24
FORT COLLINS   LGT SNOW  30  28  93 N20       29.59S FOG     WCI  18
LONGMONT       CLOUDY    35  29  79 NE8       29.59S WCI  29
$$

COZ041-046-047-076>085-087-088-232100-
...PIKES PEAK/PALMER DIVIDE AND SOUTHERN FOOTHILLS...

CITY           SKY/WX    TMP DP  RH WIND       PRES   REMARKS
COLO. SPRINGS  PTSUNNY   39  20  46 NW9       29.49R
A. F. ACADEMY  MIX PCPN  32  24  70 N14       29.46F WCI  22
SCHRIEVER AFB  PTSUNNY   38  23  55 NW7       29.48S
ELLICOTT       PTSUNNY  N/A N/A N/A N6        29.48S
FALCON         FLURRIES  34  25  69 NW14G21   29.48S WCI  25
FORT CARSON    FAIR      37  27  65 N10       29.48R
LIMON          LGT SNOW  30  30 100 NW6       29.50R FOG     WCI  24
MONUMENT HILL  LGT SNOW  28  25  86 NW16G22   29.51R WCI  17
TRINIDAD       FAIR      53   0  11 W36G46    29.46S
$$

COZ042>045-048>051-090-091-232100-
...NORTHEAST COLORADO...

CITY           SKY/WX    TMP DP  RH WIND       PRES   REMARKS
GREELEY ARPT   LGT SNOW  28  27  93 MISG      29.61R FOG
AKRON          LGT SNOW  26  24  92 NE18      29.54R VSB 1   WCI  13
BURLINGTON     CLOUDY    33  32  96 NE18      29.50S FOG     WCI  22
WRAY           NOT AVBL
STERLING       LGT SNOW  28  28 100 NE10      29.59R VSB 3/4 WCI  19
HOLYOKE        CLOUDY    32  30  93 NE12      29.59S FOG     WCI  23
FORT MORGAN    LGT SNOW  29  28  92 N14G20    29.59R WCI  19
$$

COZ086-089-092>099-232100-
...SOUTHEAST COLORADO...

CITY           SKY/WX    TMP DP  RH WIND       PRES   REMARKS
PUEBLO         FAIR      53  14  21 W29G39    29.45F
LA JUNTA       FAIR      57  23  26 NW17G33   29.45R
LAMAR          FAIR      61  25  25 W21G28    29.40R
SPRINGFIELD      N/A     66  14  13 W29G46    29.38R
$$




USA.gov is the U.S. government's official web portal to all federal, state and local government web resources and services.